Wind_Speed
26 24 23 22 20 19 17 15 11 9 8 7 7 8 8 8 6 5 4 5 7 6 2 6 7 4 6 4 6 7 14 14 20 18 15 20 23 21 25 25 22 23 22 21 23
32 30 27 26 25 23 21 19 16 12 10 9 9 10 10 10 9 10 4 5 7 10 5 6 8 5 3 6 2 3 4 11 16 17 20 21 22 23 23 24 22 23 21 22 21
34 34 32 29 29 27 26 24 21 18 14 13 12 11 11 12 12 11 8 7 8 11 8 8 10 9 9 7 6 7 4 1 9 15 16 18 19 22 20 22 22 22 24 25 25
36 37 38 35 32 31 31 29 26 23 17 15 15 14 14 15 14 14 12 10 9 11 13 10 10 13 15 10 9 12 7 2 7 10 15 17 18 16 18 18 21 25 23 24 25
37 38 39 39 38 36 32 31 31 28 24 18 18 17 17 18 16 17 17 15 11 10 13 16 10 15 15 10 13 15 9 10 4 6 9 12 15 15 15 15 18 21 21 22 22
38 38 39 41 40 39 36 34 34 32 28 25 21 21 20 21 18 20 20 17 15 13 13 17 17 11 16 14 12 15 14 11 8 3 3 11 11 8 9 11 16 18 21 24 24
40 39 39 39 40 41 41 38 36 35 33 30 26 23 23 21 21 25 23 22 19 15 15 19 17 16 12 17 18 17 19 16 9 5 4 4 5 1 3 5 15 17 17 24 25
43 42 41 40 39 40 41 41 39 36 36 35 31 25 25 21 26 27 23 21 23 20 19 20 18 15 18 16 19 21 24 22 14 15 16 4 2 4 3 2 13 10 14 17 20
46 45 43 41 40 40 41 41 41 41 39 37 36 31 26 24 24 27 24 22 22 21 22 20 17 13 17 23 21 27 25 24 26 24 16 18 10 3 1 4 7 9 13 15 19
48 47 46 44 41 39 41 42 42 43 42 42 39 33 27 23 24 27 27 22 22 23 24 22 18 13 16 24 23 22 24 24 21 18 18 21 16 7 6 5 3 8 13 17 23
51 50 48 46 44 41 42 40 43 44 43 42 38 36 31 27 25 26 28 26 22 23 23 25 19 15 20 24 26 28 23 21 18 19 17 23 22 14 10 5 1 5 8 16 18
54 52 50 49 46 44 43 42 40 42 42 42 40 36 32 31 27 25 28 27 23 20 26 25 19 20 23 21 25 34 28 23 18 19 20 19 8 9 12 11 6 6 10 15 13
52 54 53 51 48 45 44 42 40 39 41 37 37 36 32 32 27 24 28 27 25 18 22 24 21 26 24 25 25 35 31 23 16 22 24 20 12 13 17 19 11 10 12 14 13
40 46 53 52 49 46 44 43 40 39 42 35 35 33 31 29 31 23 29 29 28 21 21 22 26 26 26 25 25 37 32 30 26 24 20 16 17 15 22 21 14 16 16 14 16
38 36 39 49 51 47 44 43 40 40 41 33 33 31 31 29 23 23 28 31 26 23 27 17 25 26 24 24 30 30 35 33 27 28 26 23 26 19 21 21 21 21 19 17 19
34 36 36 35 42 49 46 43 40 40 40 30 30 28 29 29 27 25 31 31 27 29 30 20 24 25 21 25 29 31 36 32 27 23 30 26 26 21 20 24 20 21 21 15 15
33 31 35 35 36 40 44 42 41 44 36 35 30 21 26 25 28 27 32 34 31 30 28 23 23 22 22 22 26 34 36 34 33 29 31 26 32 29 27 23 22 20 15 17 20
35 33 33 36 36 36 39 41 45 45 40 37 30 26 22 21 26 28 31 35 36 30 27 28 25 22 23 23 29 35 34 30 32 34 31 32 31 25 25 25 21 18 11 15 13
34 31 31 35 35 35 36 39 42 41 41 36 32 28 25 24 25 27 32 34 33 31 30 26 27 23 24 27 32 33 33 33 31 28 30 28 29 34 35 23 16 16 16 16 19
30 29 31 31 32 37 39 38 37 35 38 36 33 34 34 30 27 26 29 31 29 29 29 26 24 28 25 29 33 31 28 29 27 28 28 24 20 20 21 21 18 23 24 24 22
27 28 32 31 33 34 37 34 34 35 38 37 36 37 35 34 32 29 29 31 30 29 27 25 26 27 28 26 30 31 28 27 25 27 25 22 19 14 10 15 21 26 26 25 24
29 28 29 32 32 33 33 32 32 37 38 37 36 38 36 38 33 31 32 29 29 29 29 23 25 29 26 27 30 33 30 26 23 21 20 20 21 16 17 18 17 21 27 23 22
25 26 27 26 28 30 32 33 36 38 39 37 36 40 44 40 37 33 33 30 27 30 32 25 25 26 27 31 30 29 30 29 30 24 21 19 20 20 22 21 18 21 23 24 25
25 28 28 25 25 26 28 31 33 36 37 37 36 42 45 45 40 38 33 29 29 31 32 26 25 26 31 29 29 29 27 25 29 31 25 22 21 20 21 22 21 22 24 23 22
9 21 29 28 29 26 24 24 25 28 32 38 38 42 47 47 44 42 35 33 31 27 26 24 26 24 25 28 33 33 27 22 26 25 24 26 24 20 20 24 26 25 23 21 19
14 11 16 29 28 27 22 21 21 24 29 36 36 42 47 47 44 47 42 34 35 31 28 25 24 25 23 24 28 32 28 27 27 26 23 24 27 27 27 19 18 21 21 22 19
14 14 10 21 37 29 24 24 23 23 28 34 39 42 45 45 42 42 46 40 37 31 30 30 27 26 27 26 27 30 29 26 30 31 31 26 29 30 24 28 23 24 21 22 14
Wind_Direction
213 217 224 230 237 243 249 256 249 243 248 231 216 232 230 231 215 249 280 281 291 278 180 172 172 143 107 57 14 30 75 75 77 74 57 69 53 48 44 37 33 26 21 24 28
214 218 222 230 238 243 249 254 257 241 248 239 222 222 232 228 221 233 260 274 282 276 258 193 189 176 174 159 263 69 71 107 76 84 79 59 51 45 40 29 14 19 14 12 20
221 217 220 225 235 244 249 255 254 250 240 238 233 224 229 230 228 232 244 252 255 264 269 239 193 190 214 184 212 236 249 68 114 107 94 67 55 57 46 40 30 15 7 8 9
231 225 221 224 230 238 246 251 253 252 247 238 239 234 233 233 225 240 240 242 248 259 268 255 221 208 221 207 210 237 244 304 93 120 102 88 73 62 54 33 26 17 6 6 4
237 236 233 228 229 235 242 250 255 254 256 240 239 239 236 236 229 235 242 242 243 245 257 265 236 229 236 219 201 238 266 299 110 141 104 100 89 65 44 32 16 13 5 7 3
242 240 239 239 237 235 239 246 254 258 257 254 239 239 237 235 238 239 239 245 245 251 256 256 259 234 230 225 222 233 264 282 289 162 162 102 98 64 45 14 10 9 357 357 5
244 244 242 242 243 242 240 243 249 255 258 256 248 239 241 230 233 242 238 239 243 245 253 256 256 257 233 227 224 233 259 253 271 226 221 200 138 214 44 7 6 3 356 351 346
246 244 244 244 243 244 245 245 247 251 258 258 255 245 243 233 228 240 243 243 242 243 245 252 257 262 254 227 229 232 237 239 260 275 276 253 212 216 191 325 15 20 14 8 20
245 246 246 244 243 242 244 245 246 249 252 256 259 257 249 240 230 232 242 241 246 245 250 256 263 263 260 255 218 228 235 243 256 268 291 290 268 233 232 77 41 22 357 347 347
242 244 246 246 246 244 243 243 244 247 251 253 257 257 257 249 237 231 235 236 246 246 251 255 256 257 254 254 247 235 239 245 258 275 304 300 287 277 263 144 61 8 317 323 325
239 241 244 245 244 244 245 244 245 246 251 253 257 261 257 251 239 232 232 237 232 247 252 253 253 255 242 242 239 233 246 248 263 272 300 291 297 280 283 221 124 2 317 300 315
239 239 241 243 244 243 244 246 247 248 249 252 256 257 261 253 242 235 230 236 235 233 244 248 252 244 238 242 235 228 234 246 240 272 278 283 311 267 289 275 281 307 297 300 304
240 239 239 241 243 244 245 245 246 249 251 250 253 256 258 254 246 236 230 227 232 229 248 248 241 238 242 245 233 223 235 234 246 254 266 263 261 255 267 275 280 284 291 301 301
242 241 239 240 241 244 244 245 245 247 250 248 252 253 253 252 250 227 234 226 230 228 242 242 240 243 241 240 237 222 238 241 241 244 240 255 249 242 259 268 268 267 280 288 288
242 241 240 239 240 244 245 244 244 247 250 249 247 247 247 246 243 227 234 230 222 228 233 236 241 238 238 237 236 230 230 239 239 234 245 244 248 226 238 246 258 269 271 277 299
239 238 240 241 239 239 243 244 244 244 243 245 246 244 240 237 235 219 225 233 219 225 229 229 241 245 243 234 237 234 224 233 240 247 241 233 243 223 248 262 268 286 284 274 281
240 238 237 238 242 239 239 240 241 240 238 241 238 241 240 233 228 221 221 232 233 231 233 229 243 247 245 238 232 230 229 234 241 248 254 241 246 253 268 271 286 287 294 281 293
239 238 238 236 236 239 237 236 238 236 237 238 237 233 235 228 223 219 220 224 228 231 229 226 228 243 245 235 227 228 231 238 244 246 255 260 261 262 269 276 276 287 275 271 300
238 234 234 238 234 235 234 235 235 235 236 237 231 227 216 218 225 226 229 231 227 228 229 230 229 239 239 229 231 232 236 243 249 256 251 255 261 264 269 271 265 258 272 283 321
232 236 231 233 233 233 234 235 236 234 238 231 225 223 219 218 214 223 225 233 233 227 221 223 225 230 231 229 232 237 239 243 248 253 256 256 263 275 260 259 256 267 277 297 313
237 235 226 228 231 232 231 232 231 229 231 228 219 219 216 216 216 212 217 229 232 228 220 227 227 216 225 227 229 237 245 238 241 254 263 256 260 268 265 262 261 270 283 294 311
237 234 229 227 230 230 231 231 228 225 225 227 218 217 216 216 214 218 220 228 227 222 214 215 227 214 224 219 226 231 237 248 236 248 247 255 257 265 271 262 270 279 284 298 311
228 222 224 224 227 226 227 230 226 226 225 224 217 217 218 213 214 217 217 223 219 211 210 209 222 220 215 220 223 228 230 236 233 236 251 267 269 259 260 272 278 286 292 304 313
228 229 225 221 224 224 226 227 229 229 226 224 218 218 220 218 211 216 222 229 232 216 215 221 228 227 223 220 222 222 232 243 241 241 251 261 276 278 281 284 284 289 296 303 313
248 226 234 215 222 223 224 228 230 230 223 224 217 215 223 223 216 216 219 227 233 235 236 232 233 232 228 221 222 224 233 243 246 252 260 263 274 279 287 283 280 284 293 300 300
239 243 255 228 223 219 219 221 219 221 218 219 218 219 225 227 220 218 219 222 229 232 233 236 241 243 242 236 234 234 241 242 247 253 257 262 266 273 282 291 287 277 294 293 297
233 232 256 235 228 226 210 216 217 211 214 218 218 222 228 230 229 224 224 224 228 227 229 230 230 240 249 250 247 249 250 256 253 260 259 260 260 265 268 280 277 285 286 288 291
Height
5908 5909 5911 5912 5913 5914 5915 5916 5917 5918 5920 5920 5921 5921 5921 5921 5922 5922 5922 5924 5923 5924 5927 5928 5930 5929 5927 5927 5927 5928 5931 5930 5930 5929 5929 5927 5925 5925 5923 5921 5920 5918 5918 5916 5912
5905 5906 5908 5909 5910 5911 5911 5913 5914 5915 5917 5919 5920 5920 5920 5920 5921 5921 5923 5924 5923 5923 5927 5928 5929 5929 5928 5927 5927 5928 5930 5929 5929 5930 5931 5929 5926 5927 5925 5923 5921 5919 5919 5918 5915
5900 5902 5904 5905 5907 5907 5908 5910 5910 5911 5914 5915 5918 5918 5918 5918 5919 5920 5921 5923 5923 5922 5925 5927 5929 5930 5928 5927 5927 5927 5930 5932 5929 5928 5930 5929 5929 5927 5926 5924 5923 5921 5921 5919 5916
5895 5897 5900 5901 5903 5904 5905 5906 5908 5908 5910 5912 5914 5915 5916 5917 5919 5918 5919 5921 5922 5922 5922 5925 5927 5928 5928 5927 5927 5926 5931 5933 5932 5929 5929 5929 5929 5929 5927 5927 5926 5923 5921 5920 5917
5889 5891 5893 5895 5898 5900 5901 5902 5903 5904 5906 5908 5910 5912 5913 5914 5916 5916 5917 5919 5919 5920 5921 5921 5926 5926 5927 5928 5928 5926 5929 5931 5934 5933 5930 5929 5930 5929 5928 5928 5927 5925 5923 5922 5917
5881 5883 5887 5889 5892 5894 5896 5897 5898 5899 5901 5904 5906 5908 5910 5912 5914 5913 5914 5916 5917 5917 5918 5918 5919 5925 5925 5927 5928 5927 5928 5930 5932 5933 5932 5931 5931 5930 5929 5928 5927 5925 5924 5921 5918
5872 5875 5878 5882 5885 5888 5890 5891 5893 5895 5897 5898 5901 5904 5905 5909 5909 5907 5910 5912 5912 5915 5915 5914 5916 5919 5924 5926 5927 5928 5928 5928 5930 5931 5933 5930 5931 5929 5929 5928 5927 5926 5925 5921 5919
5864 5867 5870 5873 5877 5880 5882 5884 5887 5889 5891 5894 5895 5898 5900 5904 5904 5903 5908 5909 5909 5910 5911 5912 5914 5917 5919 5924 5925 5926 5927 5928 5929 5929 5930 5932 5930 5929 5929 5927 5927 5926 5924 5921 5919
5856 5859 5862 5865 5868 5871 5874 5876 5880 5883 5885 5888 5891 5892 5896 5898 5900 5901 5902 5904 5906 5908 5908 5910 5912 5915 5917 5917 5922 5923 5924 5926 5926 5927 5927 5926 5929 5928 5927 5927 5927 5926 5924 5921 5920
5845 5849 5853 5856 5860 5863 5865 5868 5871 5876 5879 5881 5885 5889 5891 5894 5894 5896 5897 5899 5902 5903 5904 5906 5909 5913 5913 5914 5916 5918 5919 5921 5924 5925 5924 5923 5925 5926 5926 5925 5925 5926 5924 5922 5919
5836 5839 5843 5847 5851 5854 5856 5861 5865 5869 5872 5876 5880 5881 5885 5887 5890 5891 5892 5894 5897 5900 5900 5901 5907 5909 5909 5909 5912 5913 5915 5917 5921 5921 5921 5920 5919 5921 5921 5923 5923 5924 5923 5922 5919
5827 5830 5833 5837 5842 5845 5848 5852 5856 5861 5865 5868 5871 5875 5877 5880 5884 5885 5888 5890 5892 5895 5896 5899 5903 5903 5903 5905 5906 5909 5913 5916 5920 5919 5919 5916 5916 5916 5918 5920 5921 5922 5922 5921 5917
5816 5820 5824 5828 5832 5836 5840 5845 5849 5852 5854 5862 5864 5868 5872 5872 5877 5880 5883 5884 5886 5889 5891 5894 5898 5896 5899 5900 5901 5905 5908 5914 5917 5915 5915 5914 5913 5913 5915 5917 5919 5920 5921 5919 5916
5806 5809 5814 5818 5825 5827 5832 5836 5841 5843 5845 5855 5858 5862 5865 5867 5869 5875 5876 5880 5882 5885 5885 5891 5891 5894 5894 5897 5899 5901 5906 5909 5912 5913 5913 5912 5912 5913 5914 5915 5917 5917 5917 5916 5916
5798 5801 5804 5809 5814 5819 5824 5827 5832 5835 5838 5849 5851 5853 5857 5861 5868 5869 5870 5872 5878 5881 5882 5889 5886 5888 5891 5895 5893 5899 5901 5903 5906 5909 5910 5911 5909 5913 5913 5913 5914 5914 5913 5913 5913
5788 5793 5797 5801 5804 5810 5815 5819 5823 5828 5833 5839 5842 5846 5849 5854 5858 5862 5863 5866 5872 5873 5877 5882 5882 5885 5889 5889 5891 5894 5898 5900 5901 5904 5905 5909 5906 5910 5910 5910 5911 5911 5909 5908 5906
5781 5785 5789 5793 5797 5801 5805 5809 5814 5819 5831 5833 5837 5840 5843 5847 5851 5854 5858 5861 5865 5869 5874 5879 5880 5881 5885 5887 5888 5889 5893 5895 5897 5898 5899 5903 5902 5906 5904 5905 5905 5906 5906 5904 5903
5772 5776 5781 5784 5789 5793 5797 5801 5806 5816 5822 5826 5832 5836 5838 5842 5845 5847 5851 5854 5858 5864 5869 5871 5876 5879 5880 5883 5884 5886 5889 5891 5891 5893 5896 5896 5895 5898 5899 5900 5901 5903 5902 5901 5901
5764 5767 5772 5776 5781 5786 5790 5793 5801 5808 5813 5820 5827 5830 5833 5837 5841 5843 5846 5849 5854 5859 5862 5866 5870 5873 5875 5878 5880 5882 5885 5887 5887 5889 5888 5890 5891 5892 5893 5896 5897 5898 5897 5897 5897
5755 5760 5764 5769 5774 5778 5782 5787 5793 5800 5805 5812 5817 5822 5828 5831 5835 5839 5841 5844 5848 5852 5855 5859 5863 5866 5868 5871 5874 5877 5881 5882 5883 5883 5883 5885 5886 5886 5888 5891 5892 5892 5892 5893 5892
5749 5753 5757 5762 5767 5771 5774 5779 5786 5792 5796 5802 5809 5815 5821 5826 5830 5835 5837 5839 5842 5847 5851 5854 5858 5862 5863 5866 5870 5873 5874 5876 5879 5879 5879 5880 5883 5885 5886 5887 5887 5888 5888 5889 5888
5742 5746 5750 5755 5761 5765 5769 5775 5780 5783 5788 5794 5802 5809 5814 5819 5825 5829 5832 5834 5838 5843 5846 5849 5852 5857 5859 5861 5863 5866 5869 5871 5873 5875 5875 5876 5878 5880 5882 5883 5883 5883 5884 5885 5885
5736 5740 5744 5750 5754 5758 5762 5767 5771 5776 5781 5787 5796 5801 5806 5812 5819 5823 5827 5830 5834 5839 5841 5845 5847 5852 5854 5857 5858 5861 5864 5867 5868 5871 5872 5872 5874 5875 5877 5878 5879 5879 5880 5879 5880
5731 5736 5740 5745 5748 5752 5756 5761 5765 5769 5775 5781 5789 5794 5799 5805 5812 5816 5822 5826 5829 5835 5837 5841 5843 5847 5850 5855 5856 5858 5861 5862 5864 5866 5868 5868 5870 5872 5874 5875 5873 5874 5875 5876 5875
5727 5731 5736 5738 5742 5747 5752 5757 5760 5764 5770 5774 5780 5787 5791 5798 5806 5811 5817 5821 5825 5828 5832 5835 5839 5843 5846 5849 5851 5853 5856 5858 5859 5861 5863 5865 5866 5868 5869 5870 5869 5868 5870 5871 5872
5726 5729 5730 5732 5737 5743 5748 5752 5755 5760 5765 5769 5775 5780 5783 5790 5799 5804 5810 5815 5819 5822 5826 5830 5833 5837 5841 5843 5846 5848 5850 5851 5853 5856 5858 5860 5861 5863 5864 5864 5864 5863 5865 5866 5867
5723 5725 5727 5728 5731 5737 5743 5748 5752 5756 5761 5764 5769 5773 5778 5783 5790 5798 5804 5809 5813 5817 5820 5825 5828 5831 5834 5837 5840 5842 5843 5846 5848 5849 5852 5854 5855 5857 5860 5858 5859 5859 5860 5861 5862